Location: Newark
(42.5998°N, 13.2232°E)
Time: 00:31:24
(UTC+00:00)

DOVE 4 - Visible Passes

Search period start: 03 April 2020 00:00
Search period end: 13 April 2020 00:00
Orbit: 587 x 803 km, 97.8° (Epoch: 02 April)

Date Brightness Start Highest point End Pass type
(mag) Time Alt. Az. Time Alt. Az. Time Alt. Az.
03 Apr ? 01:34:33 10° N 01:36:17 23° N 01:36:17 23° N visible
04 Apr ? 00:37:32 10° NNE 00:38:40 17° NE 00:38:40 17° NE visible
04 Apr ? 02:15:46 10° NNW 02:17:24 17° NW 02:17:24 17° NW visible
05 Apr ? 01:17:48 10° N 01:19:46 26° N 01:19:46 26° N visible
06 Apr ? 00:21:11 10° NE 00:22:09 15° NE 00:22:09 15° NE visible
06 Apr ? 01:58:43 10° N 02:00:54 23° NNW 02:00:54 23° NNW visible
07 Apr ? 01:01:09 10° NNE 01:03:16 28° NNE 01:03:16 28° NNE visible
07 Apr ? 02:40:39 10° NNW 02:42:01 13° NW 02:42:01 13° NW visible
08 Apr ? 00:05:02 10° NE 00:05:39 12° NE 00:05:39 12° NE visible
08 Apr ? 01:41:49 10° N 01:44:24 30° NNW 01:44:24 30° NNW visible
09 Apr ? 00:44:36 10° NNE 00:46:46 26° NE 00:46:46 26° NE visible
09 Apr ? 02:23:11 10° NNW 02:25:31 18° NW 02:25:31 18° NW visible
10 Apr ? 01:25:02 10° N 01:27:53 38° N 01:27:53 38° N visible
11 Apr ? 00:28:10 10° NNE 00:30:16 23° NE 00:30:16 23° NE visible
11 Apr ? 02:06:03 10° N 02:09:01 25° NW 02:09:01 25° NW visible
12 Apr ? 01:08:19 10° NNE 01:11:23 42° NNE 01:11:23 42° NNE visible
12 Apr ? 02:48:21 10° NW 02:50:06 12° WNW 02:50:08 12° WNW visible
